FW6474 Weather Reports


time (UTC)temp
C
wind
direction
speed
KPH
gust
KPH
rain 1hr
cm
rain 24hr
cm
rain mn
cm
humidity
%
barometer
mb
20260510153739 13 297 4.8 14.5 0.00 0.23 0.00 39 1019.1
20260510153232 13 308 6.4 16.1 0.00 0.23 0.00 38 1019.0
20260510152727 13 331 4.8 16.1 0.00 0.23 0.00 40 1018.9
20260510152224 13 28 4.8 14.5 0.00 0.23 0.00 38 1018.9
20260510151955 13 338 3.2 12.9 0.00 0.23 0.00 40 1018.9
20260510151455 13 311 1.6 9.7 0.00 0.23 0.00 43 1018.9
20260510150724 13 210 3.2 16.1 0.00 0.23 0.00 43 1018.9
20260510150223 12 82 3.2 16.1 0.00 0.23 0.00 45 1018.8
20260510145721 12 245 3.2 9.7 0.00 0.23 0.00 42 1018.7
20260510145218 12 72 1.6 8.0 0.00 0.23 0.00 45 1018.7
20260510144950 12 252 3.2 11.3 0.00 0.23 0.00 45 1018.6
20260510144451 12 120 3.2 11.3 0.00 0.23 0.00 44 1018.6
20260510143719 12 263 1.6 9.7 0.00 0.23 0.00 46 1018.6
20260510143218 11 127 3.2 9.7 0.00 0.23 0.00 46 1018.6
20260510142719 12 221 1.6 6.4 0.00 0.23 0.00 46 1018.6
20260510142219 12 240 3.2 9.7 0.00 0.23 0.00 45 1018.6
20260510141717 11 100 3.2 9.7 0.00 0.23 0.00 48 1018.6
20260510141449 11 53 1.6 8.0 0.00 0.23 0.00 46 1018.6
20260510140717 11 315 1.6 6.4 0.00 0.23 0.00 49 1018.5
20260510140216 11 340 0.0 6.4 0.00 0.23 0.00 47 1018.6
20260510135712 11 347 1.6 12.9 0.00 0.23 0.00 48 1018.6
20260510135212 11 300 1.6 12.9 0.00 0.23 0.00 48 1018.7
20260510134711 11 65 1.6 11.3 0.00 0.23 0.00 48 1018.6
20260510134439 10 22 4.8 11.3 0.00 0.23 0.00 51 1018.6
20260510133707 10 242 4.8 11.3 0.00 0.23 0.00 50 1018.5
20260510133437 10 302 3.2 8.0 0.00 0.23 0.00 51 1018.4
20260510132706 10 314 3.2 8.0 0.00 0.23 0.00 51 1018.3
20260510132206 10 291 3.2 9.7 0.00 0.23 0.00 52 1018.3
20260510131706 10 255 3.2 9.7 0.00 0.23 0.00 52 1018.2
20260510131207 10 316 3.2 8.0 0.00 0.23 0.00 51 1018.1
20260510130706 10 277 3.2 9.7 0.00 0.23 0.00 51 1018.1
20260510130206 9 29 3.2 12.9 0.00 0.23 0.00 52 1018.1
20260510125704 9 26 3.2 12.9 0.00 0.23 0.00 54 1018.0
20260510125204 9 280 4.8 9.7 0.00 0.23 0.00 54 1018.0
20260510124703 9 325 4.8 11.3 0.00 0.23 0.00 53 1018.0
20260510124202 9 352 4.8 16.1 0.00 0.23 0.00 55 1017.9
20260510123703 9 323 3.2 16.1 0.00 0.23 0.00 57 1017.9
20260510123205 9 333 3.2 9.7 0.00 0.23 0.00 58 1017.9
20260510122659 9 294 1.6 9.7 0.00 0.23 0.00 58 1017.8
20260510122153 8 283 3.2 6.4 0.00 0.23 0.00 62 1017.8
20260510121919 8 300 3.2 8.0 0.00 0.23 0.00 62 1017.8
20260510121140 8 273 3.2 8.0 0.00 0.23 0.00 61 1017.8
20260510120635 8 347 3.2 8.0 0.00 0.23 0.00 62 1017.7
20260510120129 8 338 3.2 6.4 0.00 0.23 0.00 63 1017.4
20260510115854 7 292 3.2 8.0 0.00 0.23 0.00 63 1017.4
20260510115117 7 288 3.2 9.7 0.00 0.23 0.00 62 1017.3
20260510114611 7 274 1.6 9.7 0.00 0.23 0.00 63 1017.3
20260510114336 7 299 3.2 9.7 0.00 0.23 0.00 62 1017.2
20260510113559 7 237 3.2 9.7 0.00 0.23 0.00 63 1017.1
20260510113054 7 314 3.2 9.7 0.00 0.23 0.00 64 1016.9
20260510112547 6 298 3.2 9.7 0.00 0.23 0.00 65 1016.9
20260510112042 6 277 1.6 9.7 0.00 0.23 0.00 66 1016.8
20260510111535 6 305 1.6 8.0 0.00 0.23 0.00 68 1016.8
20260510111029 6 295 1.6 8.0 0.00 0.23 0.00 68 1016.8
20260510110524 6 306 1.6 6.4 0.00 0.23 0.00 70 1016.7
20260510110017 5 293 0.0 4.8 0.00 0.23 0.00 72 1016.7
20260510105511 5 93 0.0 1.6 0.00 0.23 0.00 77 1016.7
20260510105237 5 93 0.0 0.0 0.00 0.23 0.00 79 1016.6
20260510104500 4 91 0.0 0.0 0.00 0.23 0.00 80 1016.6
20260510104224 4 91 0.0 0.0 0.00 0.23 0.00 80 1016.5
20260510103447 3 91 0.0 0.0 0.00 0.23 0.00 80 1016.4
20260510102942 3 91 0.0 0.0 0.00 0.23 0.00 80 1016.3
20260510102706 3 91 0.0 0.0 0.00 0.23 0.00 80 1016.3
20260510101929 3 91 0.0 0.0 0.00 0.23 0.00 80 1016.2
20260510101654 4 91 0.0 0.0 0.00 0.23 0.00 80 1016.2
20260510100917 4 91 0.0 0.0 0.00 0.23 0.00 79 1016.0
20260510100411 4 91 0.0 0.0 0.00 0.23 0.00 78 1016.0
20260510095905 4 93 0.0 1.6 0.00 0.23 0.00 78 1015.8
20260510095359 4 93 0.0 1.6 0.00 0.23 0.00 78 1015.8
20260510095125 4 4 0.0 0.0 0.00 0.23 0.00 78 1015.9
20260510094348 4 4 0.0 0.0 0.00 0.23 0.00 77 1015.8
20260510093841 5 3 0.0 0.0 0.00 0.23 0.00 77 1015.8
20260510093335 5 4 0.0 0.0 0.00 0.23 0.00 76 1015.8
20260510092830 5 3 0.0 0.0 0.00 0.23 0.00 76 1015.7
20260510092324 5 3 0.0 0.0 0.00 0.23 0.00 76 1015.7
20260510091817 5 3 0.0 0.0 0.00 0.23 0.00 75 1015.6
20260510091311 5 3 0.0 0.0 0.00 0.23 0.00 75 1015.3
20260510090805 5 3 0.0 0.0 0.00 0.23 0.00 75 1015.2
20260510090259 5 3 0.0 0.0 0.00 0.23 0.00 75 1015.0
20260510085753 5 3 0.0 0.0 0.00 0.23 0.00 74 1014.8
20260510085247 5 3 0.0 0.0 0.00 0.23 0.00 73 1014.8
20260510084741 6 3 0.0 0.0 0.00 0.23 0.00 72 1014.6
20260510084236 6 3 0.0 0.0 0.00 0.23 0.00 73 1014.5
20260510083729 6 3 0.0 1.6 0.00 0.23 0.00 71 1014.4
20260510083455 6 3 0.0 0.0 0.00 0.23 0.00 71 1014.3
20260510082717 6 4 0.0 4.8 0.00 0.23 0.00 71 1014.2
20260510082211 6 3 1.6 4.8 0.00 0.23 0.00 71 1014.2
20260510081705 6 8 0.0 4.8 0.00 0.23 0.00 70 1014.2
20260510081159 6 338 0.0 4.8 0.00 0.23 0.00 70 1014.0
20260510080653 7 34 0.0 4.8 0.00 0.23 0.00 70 1013.9
20260510080147 7 60 0.0 4.8 0.00 0.23 0.00 70 1013.8
20260510075641 7 124 0.0 6.4 0.00 0.23 0.00 70 1013.6
20260510075135 7 64 0.0 6.4 0.00 0.23 0.00 70 1013.5
20260510074629 7 9 0.0 4.8 0.00 0.23 0.00 70 1013.4
20260510074123 7 29 0.0 4.8 0.00 0.23 0.00 70 1013.3
20260510073617 7 27 0.0 6.4 0.00 0.23 0.00 70 1013.2
20260510073111 7 85 0.0 6.4 0.00 0.23 0.00 69 1013.1
20260510072605 7 8 0.0 4.8 0.00 0.23 0.00 69 1013.0
20260510072059 8 358 0.0 3.2 0.00 0.23 0.00 69 1013.0
20260510071554 8 34 0.0 3.2 0.00 0.23 0.00 69 1012.9
20260510071047 8 34 0.0 3.2 0.00 0.23 0.00 68 1012.9
20260510070541 8 64 1.6 8.0 0.00 0.23 0.00 68 1012.8
20260510070035 8 55 3.2 8.0 0.00 0.23 0.00 67 1012.8
20260510065529 9 71 3.2 11.3 0.00 0.23 0.00 67 1012.8
20260510065023 9 65 3.2 11.3 0.00 0.23 0.00 66 1012.7
20260510064517 9 45 3.2 11.3 0.00 0.23 0.00 66 1012.7
20260510064012 9 53 1.6 8.0 0.00 0.23 0.00 67 1012.6
20260510063505 8 63 1.6 8.0 0.00 0.23 0.00 68 1012.6
20260510063000 8 15 1.6 12.9 0.00 0.23 0.00 68 1012.4
20260510062453 8 43 0.0 12.9 0.00 0.23 0.00 69 1012.4
20260510062218 8 174 0.0 1.6 0.00 0.23 0.00 70 1012.3
20260510061441 8 354 0.0 0.0 0.00 0.23 0.00 69 1012.2
20260510060935 8 353 0.0 0.0 0.00 0.23 0.00 69 1012.2
20260510060430 9 353 0.0 0.0 0.00 0.23 0.00 69 1012.1
20260510055923 9 353 0.0 0.0 0.00 0.23 0.00 69 1012.1
20260510055417 9 353 0.0 0.0 0.00 0.23 0.00 68 1012.0
20260510055142 9 353 0.0 0.0 0.00 0.23 0.00 68 1012.0
20260510054405 9 353 0.0 0.0 0.00 0.23 0.00 67 1011.9
20260510053859 10 353 0.0 0.0 0.00 0.23 0.00 66 1011.9
20260510053353 10 353 0.0 1.6 0.00 0.23 0.00 65 1011.8
20260510052847 10 354 0.0 1.6 0.00 0.23 0.00 65 1011.6
20260510052338 10 354 0.0 1.6 0.00 0.23 0.00 64 1011.5
20260510051833 10 354 0.0 1.6 0.00 0.23 0.00 64 1011.4
20260510051327 11 356 1.6 6.4 0.00 0.23 0.00 63 1011.4
20260510050820 11 356 1.6 6.4 0.00 0.23 0.00 63 1011.4
20260510050315 11 28 0.0 3.2 0.00 0.23 0.00 63 1011.3
20260510050041 11 334 0.0 3.2 0.00 0.23 0.00 62 1011.2
20260510045308 11 3 0.0 4.8 0.00 0.23 0.00 62 1011.2
20260510044752 11 28 1.6 8.0 0.00 0.23 0.00 61 1011.1
20260510044246 11 92 1.6 8.0 0.00 0.23 0.00 61 1011.0
20260510043743 11 13 0.0 8.0 0.00 0.23 0.00 61 1010.9
20260510043738 12 6 1.6 8.0 0.00 0.23 0.00 60 1010.9
20260510042728 12 18 1.6 8.0 0.00 0.23 0.00 60 1010.8
20260510042222 12 51 1.6 9.7 0.00 0.23 0.00 59 1010.9
20260510041716 12 9 1.6 9.7 0.00 0.23 0.00 59 1010.7
20260510041211 12 32 1.6 9.7 0.00 0.23 0.00 59 1010.6
20260510040705 12 44 3.2 11.3 0.00 0.23 0.00 59 1010.5
20260510040158 12 39 3.2 11.3 0.00 0.23 0.00 59 1010.2
20260510035653 12 4 4.8 17.7 0.00 0.23 0.23 58 1010.4
20260510035145 13 6 4.8 17.7 0.00 0.23 0.23 58 1010.2
20260510034640 13 15 3.2 16.1 0.00 0.23 0.23 58 1010.2
20260510034133 13 69 3.2 16.1 0.00 0.23 0.23 58 1010.1
20260510033627 13 12 4.8 12.9 0.00 0.23 0.23 58 1009.9
20260510033122 13 35 6.4 20.9 0.00 0.23 0.23 58 1009.9
20260510032616 14 51 8.0 20.9 0.00 0.23 0.23 57 1009.8
20260510032109 15 24 9.7 20.9 0.00 0.23 0.23 55 1009.6
20260510031057 15 5 4.8 14.5 0.00 0.23 0.23 49 1009.3
20260510030553 15 282 4.8 12.9 0.00 0.23 0.23 48 1009.2
20260510030547 15 321 4.8 17.7 0.00 0.23 0.23 48 1009.2
20260510025539 15 45 8.0 22.5 0.00 0.23 0.23 48 1009.1
20260510025033 16 292 8.0 22.5 0.00 0.23 0.23 48 1009.0
20260510024528 16 312 4.8 17.7 0.00 0.23 0.23 49 1009.0
20260510024022 16 23 6.4 19.3 0.00 0.23 0.23 49 1008.9
20260510023515 16 262 8.0 24.1 0.00 0.23 0.23 49 1008.8
20260510023010 16 30 8.0 24.1 0.00 0.23 0.23 48 1008.7
20260510022504 16 30 6.4 20.9 0.00 0.23 0.23 49 1008.6
20260510021959 16 307 4.8 19.3 0.00 0.23 0.23 50 1008.2
20260510021452 16 307 3.2 11.3 0.00 0.23 0.23 52 1008.0
20260510020946 16 290 1.6 9.7 0.00 0.23 0.23 54 1008.0
20260510020440 16 336 1.6 6.4 0.00 0.23 0.23 55 1007.8
20260510015934 16 276 0.0 1.6 0.00 0.23 0.23 55 1007.6
20260510015658 16 281 0.0 1.6 0.00 0.23 0.23 54 1007.3
20260510014921 16 281 0.0 1.6 0.00 0.23 0.23 53 1007.2
20260510014416 16 278 0.0 1.6 0.00 0.23 0.23 53 1007.1
20260510013909 16 278 0.0 1.6 0.00 0.23 0.23 52 1007.0
20260510013404 17 279 1.6 6.4 0.00 0.23 0.23 51 1006.9
20260510012858 17 277 1.6 6.4 0.00 0.23 0.23 51 1006.7
20260510012352 17 342 0.0 1.6 0.00 0.23 0.23 51 1006.5
20260510012116 17 347 0.0 1.6 0.00 0.23 0.23 49 1006.3
20260510011339 17 24 0.0 4.8 0.00 0.23 0.23 49 1006.2
20260510010834 17 301 0.0 4.8 0.00 0.23 0.23 48 1006.2
20260510010328 18 301 1.6 4.8 0.00 0.23 0.23 47 1006.1
20260510005826 18 288 1.6 4.8 0.00 0.23 0.23 46 1006.0
20260510005311 18 286 3.2 11.3 0.00 0.23 0.23 46 1005.8
20260510004806 18 267 4.8 11.3 0.00 0.23 0.23 45 1005.9
20260510004300 18 285 6.4 14.5 0.00 0.23 0.23 45 1005.7
20260510003754 18 300 4.8 17.7 0.00 0.23 0.23 44 1005.6
20260510003248 18 278 4.8 17.7 0.00 0.23 0.23 44 1005.6
20260510003012 19 231 4.8 14.5 0.00 0.23 0.23 44 1005.5
20260510002236 19 298 6.4 17.7 0.00 0.23 0.23 43 1005.5
20260510001729 19 281 4.8 17.7 0.00 0.23 0.23 43 1005.4
20260510001224 19 295 6.4 17.7 0.00 0.23 0.23 42 1005.3
20260510000718 19 260 8.0 17.7 0.00 0.23 0.23 42 1005.2
20260510000213 20 270 9.7 22.5 0.00 0.23 0.23 41 1005.2
20260510000208 20 283 9.7 25.7 0.00 0.23 0.23 41 1005.2
20260509235200 20 264 9.7 25.7 0.00 0.23 0.23 41 1005.0
20260509234654 20 302 9.7 22.5 0.00 0.23 0.23 40 1005.0
20260509234147 20 231 9.7 22.5 0.00 0.23 0.23 40 1005.0
20260509233641 20 288 9.7 19.3 0.00 0.23 0.23 40 1005.0
20260509233136 20 288 11.3 29.0 0.00 0.23 0.23 39 1005.2
20260509232636 20 281 11.3 29.0 0.00 0.23 0.23 39 1005.0
20260509232133 20 294 11.3 25.7 0.00 0.23 0.23 39 1004.9
20260509231633 20 293 12.9 30.6 0.00 0.23 0.23 38 1004.9
20260509231133 20 300 14.5 35.4 0.00 0.23 0.23 38 1004.9
20260509230630 21 322 12.9 35.4 0.00 0.23 0.23 37 1004.9
20260509230131 21 309 11.3 27.4 0.00 0.23 0.23 37 1004.8
20260509225637 21 295 14.5 33.8 0.00 0.23 0.23 38 1004.7
20260509225130 21 230 16.1 37.0 0.00 0.23 0.23 38 1004.5
20260509224629 21 237 14.5 43.5 0.00 0.23 0.23 37 1004.3
20260509224128 20 307 14.5 43.5 0.00 0.23 0.23 38 1004.2
20260509223628 20 309 16.1 33.8 0.00 0.23 0.23 38 1004.1
20260509223126 21 302 12.9 30.6 0.00 0.23 0.23 38 1004.1
20260509222628 21 255 11.3 37.0 0.00 0.23 0.23 38 1004.1
20260509222130 21 233 19.3 43.5 0.00 0.23 0.23 37 1003.7
20260509222126 21 250 17.7 37.0 0.00 0.23 0.23 38 1003.8
20260509221126 21 240 17.7 43.5 0.00 0.23 0.23 37 1003.7
20260509220623 21 263 14.5 33.8 0.00 0.23 0.23 39 1003.6
20260509220123 21 248 11.3 30.6 0.00 0.23 0.23 38 1003.7
20260509215618 21 269 14.5 38.6 0.00 0.23 0.23 38 1003.6
20260509215112 21 140 17.7 38.6 0.00 0.23 0.23 38 1003.5
20260509214606 21 275 17.7 49.9 0.00 0.23 0.23 38 1003.4
20260509214100 21 291 16.1 49.9 0.00 0.23 0.23 37 1003.4
20260509213553 21 286 14.5 35.4 0.00 0.23 0.23 39 1003.3
20260509213048 21 265 14.5 30.6 0.00 0.23 0.23 40 1003.2
20260509212813 21 316 14.5 29.0 0.00 0.23 0.23 40 1003.1
20260509212037 21 241 14.5 32.2 0.00 0.23 0.23 39 1003.3
20260509212032 21 257 11.3 32.2 0.00 0.23 0.23 40 1003.3
20260509211023 21 268 9.7 20.9 0.00 0.23 0.23 41 1003.4
20260509210517 21 225 11.3 24.1 0.00 0.23 0.23 43 1003.4
20260509210012 20 251 11.3 24.1 0.00 0.23 0.23 45 1003.5
20260509205506 20 301 9.7 24.1 0.00 0.23 0.23 49 1003.4
20260509205000 20 219 8.0 24.1 0.00 0.23 0.23 57 1003.5
20260509204724 20 317 8.0 24.1 0.00 0.23 0.23 59 1003.6
20260509203948 20 330 6.4 17.7 0.00 0.23 0.23 60 1003.7
20260509203441 19 295 6.4 16.1 0.00 0.23 0.23 63 1003.7
20260509202939 19 281 6.4 17.7 0.00 0.23 0.23 64 1003.8
20260509202440 18 241 6.4 17.7 0.00 0.23 0.23 62 1003.9
20260509201940 18 255 4.8 12.9 0.18 0.23 0.23 63 1004.0
20260509201437 18 289 4.8 20.9 0.20 0.23 0.23 62 1004.1
20260509200937 18 246 4.8 20.9 0.20 0.23 0.23 62 1004.1
20260509200438 17 231 4.8 12.9 0.20 0.23 0.23 65 1004.0
20260509195938 16 249 3.2 11.3 0.20 0.23 0.23 72 1004.0
20260509195438 16 335 4.8 16.1 0.20 0.23 0.23 74 1004.0
20260509194936 16 268 4.8 16.1 0.20 0.23 0.23 74 1004.1
20260509194437 15 270 4.8 14.5 0.23 0.23 0.23 75 1004.1
20260509193936 14 233 4.8 14.5 0.23 0.23 0.23 76 1004.2
20260509193437 13 293 3.2 11.3 0.23 0.23 0.23 78 1004.2
20260509192937 13 268 9.7 37.0 0.23 0.23 0.23 76 1004.3
20260509192438 14 296 16.1 46.7 0.23 0.23 0.23 72 1004.4
20260509192207 16 283 12.9 46.7 0.05 0.05 0.05 66 1004.8
20260509191437 18 281 9.7 25.7 0.03 0.03 0.03 62 1004.3
20260509190933 18 231 11.3 32.2 0.03 0.03 0.03 60 1003.6
20260509190432 18 281 12.9 32.2 0.03 0.03 0.03 60 1003.3
20260509190203 18 255 12.9 30.6 0.03 0.03 0.03 61 1003.4
20260509185704 19 258 12.9 37.0 0.03 0.03 0.03 61 1003.3
20260509184932 20 270 14.5 41.8 0.03 0.03 0.03 61 1003.2
20260509184432 20 269 9.7 41.8 0.00 0.00 0.00 53 1002.9
20260509183934 21 202 9.7 27.4 0.00 0.00 0.00 51 1003.1
20260509183432 21 229 11.3 37.0 0.00 0.00 0.00 51 1002.9
20260509182933 21 262 11.3 37.0 0.00 0.00 0.00 54 1003.1
20260509182431 21 219 14.5 30.6 0.00 0.00 0.00 52 1003.1
20260509181931 21 233 11.3 30.6 0.00 0.00 0.00 51 1003.4
20260509181702 21 213 8.0 25.7 0.00 0.00 0.00 51 1003.3
20260509180929 21 253 11.3 27.4 0.00 0.00 0.00 53 1003.2
20260509180429 21 203 11.3 27.4 0.00 0.00 0.00 52 1003.4
20260509175930 21 192 9.7 24.1 0.00 0.00 0.00 52 1003.4
20260509175658 21 188 8.0 25.7 0.00 0.00 0.00 51 1003.5
20260509174927 21 225 9.7 25.7 0.00 0.00 0.00 52 1003.5
20260509174426 21 227 9.7 24.1 0.00 0.00 0.00 52 1003.4
20260509173927 21 221 9.7 20.9 0.00 0.00 0.00 57 1003.5
20260509173700 21 240 9.7 20.9 0.00 0.00 0.00 55 1003.5
20260509172927 20 217 8.0 20.9 0.00 0.00 0.00 54 1003.5
20260509172427 20 199 9.7 24.1 0.00 0.00 0.00 54 1003.8
20260509171926 20 198 9.7 24.1 0.00 0.00 0.00 55 1003.8
20260509171702 20 257 9.7 27.4 0.00 0.00 0.00 58 1003.8
20260509170923 20 232 8.0 27.4 0.00 0.00 0.00 58 1003.8
20260509170424 20 214 6.4 22.5 0.00 0.00 0.00 58 1003.8
20260509165922 20 237 6.4 17.7 0.00 0.00 0.00 56 1003.9
20260509165423 20 249 6.4 19.3 0.00 0.00 0.00 56 1004.0
20260509164922 20 205 8.0 22.5 0.00 0.00 0.00 57 1004.0
20260509164424 20 208 9.7 22.5 0.00 0.00 0.00 59 1003.9
20260509163922 20 224 9.7 20.9 0.00 0.00 0.00 58 1004.0
20260509163423 20 286 9.7 20.9 0.00 0.00 0.00 61 1004.0
20260509162924 20 210 9.7 25.7 0.00 0.00 0.00 61 1004.1
20260509162419 20 216 9.7 29.0 0.00 0.00 0.00 62 1004.1
20260509161918 20 224 9.7 29.0 0.00 0.00 0.00 57 1004.2
20260509161651 20 183 8.0 20.9 0.00 0.00 0.00 59 1004.2
20260509161150 20 156 9.7 30.6 0.00 0.00 0.00 63 1004.2
20260509160420 19 236 9.7 30.6 0.00 0.00 0.00 62 1004.3
20260509155918 19 235 9.7 25.7 0.00 0.00 0.00 64 1004.4
20260509155419 18 200 9.7 27.4 0.00 0.00 0.00 64 1004.4
20260509154920 18 236 9.7 27.4 0.00 0.00 0.00 67 1004.6
20260509154420 18 231 9.7 24.1 0.00 0.00 0.00 65 1004.5